Date String (YYYY-MM-DD hh:mm:ss) UTC,Instrument flags,Ambient pressure (hPa),Sample flow (lpm),Bypass flow (lpm),Sample temperature (°C),Ambient temperature (°C),ASC tube jacket temperature (°C),LED temperature (°C),Box temperature (°C),Sample RH (%),Span deviation,Mass concentration (μg/m³),Mass concentration (μg/m³),Mass concentration (μg/m³)
DateTimeUTC,F1_M11,P_M11,Q1_M11,Q2_M11,T1_M11,T2_M11,T3_M11,T4_M11,T5_M11,U1_M11,ZSPAN_M11,X0_M11,X2_M11,X1_M11
2022-06-19 14:00:00,,0824.6,5.00,0.00,29.5,27.7,00.0,38.4,31.3,26.6,0000.0,0007.84,0003.56,0002.22
2022-06-19 14:01:00,,0824.6,4.99,0.00,29.5,27.8,00.0,38.4,31.4,26.6,0000.0,0007.79,0003.53,0002.22
2022-06-19 14:02:00,,0824.6,5.00,0.00,29.5,28.0,00.0,38.4,31.4,26.7,0000.0,0007.71,0003.54,0002.21
2022-06-19 14:03:00,,0824.8,4.99,0.00,29.5,28.1,00.0,38.4,31.4,26.7,0000.0,0007.76,0003.53,0002.19
2022-06-19 14:04:00,,0824.7,5.00,0.00,29.5,28.2,00.0,38.4,31.4,26.7,0000.0,0007.94,0003.50,0002.19
2022-06-19 14:05:00,,0824.7,5.01,0.00,29.6,28.3,00.0,38.4,31.5,26.8,0000.0,0007.85,0003.46,0002.19
2022-06-19 14:06:00,,0824.7,5.00,0.00,29.6,28.4,00.0,38.4,31.5,26.9,0000.0,0007.79,0003.47,0002.21
2022-06-19 14:07:00,,0824.6,5.00,0.00,29.6,28.5,00.0,38.4,31.5,26.9,0000.0,0007.75,0003.49,0002.21
2022-06-19 14:08:00,,0824.6,5.00,0.00,29.6,28.6,00.0,38.4,31.6,26.9,0000.0,0007.71,0003.45,0002.22
2022-06-19 14:09:00,,0824.6,4.99,0.00,29.6,28.7,00.0,38.4,31.6,27.0,0000.0,0007.62,0003.42,0002.23
2022-06-19 14:10:00,,0824.7,5.01,0.00,29.7,28.7,00.0,38.4,31.6,26.9,0000.0,0007.67,0003.45,0002.27
2022-06-19 14:11:00,,0824.7,4.99,0.00,29.7,28.8,00.0,38.5,31.7,26.9,0000.0,0007.67,0003.46,0002.28
2022-06-19 14:12:00,,0825.0,5.00,0.00,29.7,28.8,00.0,38.5,31.7,26.7,0000.0,0007.82,0003.52,0002.30
2022-06-19 14:13:00,,0824.9,5.01,0.00,29.8,28.9,00.0,38.5,31.7,26.8,0000.0,0007.79,0003.51,0002.31
2022-06-19 14:14:00,,0824.8,4.99,0.00,29.8,28.9,00.0,38.5,31.8,26.6,0000.0,0007.76,0003.53,0002.35
2022-06-19 14:15:00,,0824.5,5.00,0.00,29.8,29.0,00.0,38.5,31.8,26.5,0000.0,0007.64,0003.59,0002.36
2022-06-19 14:16:00,,0824.8,4.99,0.00,29.8,29.0,00.0,38.6,31.8,26.3,0000.0,0007.82,0003.65,0002.37
2022-06-19 14:17:00,,0824.5,5.00,0.00,29.9,28.8,00.0,38.5,31.8,26.3,0000.0,0007.84,0003.68,0002.36
2022-06-19 14:18:00,,0824.5,5.01,0.00,29.8,27.9,00.0,38.5,31.5,26.4,0000.0,0007.89,0003.67,0002.36
2022-06-19 14:19:00,,0824.6,4.99,0.00,29.7,27.3,00.0,38.4,31.3,26.4,0000.0,0008.38,0003.72,0002.37
2022-06-19 14:20:00,,0824.5,5.00,0.00,29.6,27.2,00.0,38.4,31.3,26.6,0000.0,0008.51,0003.76,0002.36
2022-06-19 14:21:00,,0824.6,5.01,0.00,29.6,27.3,00.0,38.4,31.3,26.7,0000.0,0008.79,0003.73,0002.33
2022-06-19 14:22:00,,0824.6,5.00,0.00,29.5,27.4,00.0,38.4,31.3,26.9,0000.0,0008.94,0003.71,0002.33
2022-06-19 14:23:00,,0824.5,5.00,0.00,29.5,27.6,00.0,38.4,31.3,27.1,0000.0,0009.00,0003.70,0002.33
2022-06-19 14:24:00,,0824.6,4.99,0.00,29.5,27.8,00.0,38.4,31.3,27.2,0000.0,0009.70,0003.75,0002.36
2022-06-19 14:25:00,,0824.6,5.01,0.00,29.5,27.9,00.0,38.4,31.4,27.2,0000.0,0010.02,0003.77,0002.35
2022-06-19 14:26:00,,0824.6,5.01,0.00,29.5,28.1,00.0,38.4,31.4,27.2,0000.0,0010.01,0003.77,0002.37
2022-06-19 14:27:00,,0824.7,4.99,0.00,29.5,28.2,00.0,38.4,31.4,27.3,0000.0,0010.07,0003.77,0002.38
2022-06-19 14:28:00,,0824.6,5.01,0.00,29.5,28.3,00.0,38.4,31.5,27.2,0000.0,0009.94,0003.72,0002.40
2022-06-19 14:29:00,,0824.6,5.01,0.00,29.6,28.4,00.0,38.4,31.5,27.3,0000.0,0009.70,0003.70,0002.41
2022-06-19 14:30:00,,0824.7,5.00,0.00,29.6,28.5,00.0,38.4,31.5,27.3,0000.0,0009.22,0003.67,0002.41
2022-06-19 14:31:00,,0825.0,4.99,0.00,29.6,28.6,00.0,38.4,31.6,27.1,0000.0,0009.25,0003.68,0002.42
2022-06-19 14:32:00,,0824.8,5.00,0.00,29.7,28.7,00.0,38.4,31.6,27.0,0000.0,0008.91,0003.67,0002.44
2022-06-19 14:33:00,,0824.6,5.00,0.00,29.7,28.7,00.0,38.4,31.7,27.0,0000.0,0008.70,0003.66,0002.46
2022-06-19 14:34:00,,0824.6,4.99,0.00,29.7,28.8,00.0,38.5,31.7,27.0,0000.0,0008.88,0003.66,0002.46
2022-06-19 14:35:00,,0824.6,5.00,0.00,29.7,28.9,00.0,38.5,31.7,27.0,0000.0,0008.53,0003.62,0002.44
2022-06-19 14:36:00,,0824.7,5.00,0.00,29.8,28.9,00.0,38.5,31.7,26.9,0000.0,0008.25,0003.64,0002.46
2022-06-19 14:37:00,,0824.7,5.00,0.00,29.8,29.0,00.0,38.5,31.8,26.8,0000.0,0008.16,0003.63,0002.45
2022-06-19 14:38:00,,0824.6,5.00,0.00,29.8,29.0,00.0,38.5,31.8,26.7,0000.0,0008.06,0003.62,0002.44
2022-06-19 14:39:00,,0824.6,5.01,0.00,29.8,28.7,00.0,38.5,31.7,26.6,0000.0,0008.13,0003.63,0002.44
2022-06-19 14:40:00,,0824.7,5.00,0.00,29.8,27.7,00.0,38.5,31.5,26.6,0000.0,0008.23,0003.65,0002.43
2022-06-19 14:41:00,,0824.7,5.00,0.00,29.7,27.3,00.0,38.4,31.4,26.7,0000.0,0008.31,0003.66,0002.43
2022-06-19 14:42:00,,0824.7,4.99,0.00,29.6,27.2,00.0,38.4,31.3,26.8,0000.0,0008.30,0003.66,0002.41
2022-06-19 14:43:00,,0824.7,5.00,0.00,29.6,27.3,00.0,38.4,31.3,26.9,0000.0,0008.36,0003.67,0002.40
2022-06-19 14:44:00,,0824.6,5.01,0.00,29.5,27.5,00.0,38.4,31.3,27.0,0000.0,0008.42,0003.71,0002.40
2022-06-19 14:45:00,,0824.6,4.99,0.00,29.5,27.6,00.0,38.4,31.3,27.1,0000.0,0008.17,0003.69,0002.40
2022-06-19 14:46:00,,0824.6,4.99,0.00,29.5,27.8,00.0,38.4,31.3,27.2,0000.0,0008.03,0003.77,0002.42
2022-06-19 14:47:00,,0824.7,5.00,0.00,29.5,28.0,00.0,38.4,31.4,27.1,0000.0,0008.09,0003.80,0002.42
2022-06-19 14:48:00,,0824.7,5.00,0.00,29.5,28.1,00.0,38.4,31.4,27.2,0000.0,0008.11,0003.78,0002.42
2022-06-19 14:49:00,,0824.7,4.99,0.00,29.5,28.2,00.0,38.4,31.4,27.2,0000.0,0008.09,0003.74,0002.42
2022-06-19 14:50:00,,0824.6,5.01,0.00,29.6,28.4,00.0,38.4,31.5,27.2,0000.0,0007.99,0003.71,0002.42
2022-06-19 14:51:00,,0824.6,5.00,0.00,29.6,28.5,00.0,38.4,31.5,27.1,0000.0,0008.36,0003.71,0002.43
2022-06-19 14:52:00,,0824.6,4.99,0.00,29.6,28.6,00.0,38.4,31.6,27.1,0000.0,0008.36,0003.71,0002.44
2022-06-19 14:53:00,,0824.6,5.00,0.00,29.6,28.6,00.0,38.4,31.6,27.0,0000.0,0008.24,0003.68,0002.46
2022-06-19 14:54:00,,0824.6,5.00,0.00,29.7,28.7,00.0,38.4,31.6,26.9,0000.0,0008.16,0003.67,0002.47
2022-06-19 14:55:00,,0824.6,5.00,0.00,29.7,28.8,00.0,38.4,31.7,26.9,0000.0,0008.14,0003.66,0002.47
2022-06-19 14:56:00,,0824.6,5.01,0.00,29.7,28.8,00.0,38.5,31.7,26.9,0000.0,0008.11,0003.65,0002.45
2022-06-19 14:57:00,,0824.6,4.99,0.00,29.8,28.9,00.0,38.5,31.7,26.8,0000.0,0008.10,0003.61,0002.45
2022-06-19 14:58:00,,0824.8,5.00,0.00,29.7,28.3,00.0,38.4,31.6,26.8,0000.0,0008.12,0003.60,0002.47
2022-06-19 14:59:00,,0824.8,5.00,0.00,29.7,27.4,00.0,38.4,31.4,26.9,0000.0,0008.26,0003.60,0002.47
